Weather History for Albany, NY

Change the Weather History Date:

Wednesday, August 28, 2013

  Actual Average Record
Temperature  
Mean Temperature 75 °F 68 °F  
Max Temperature 87 °F 78 °F 98 °F (1948)
Min Temperature 63 °F 58 °F 42 °F (1982)
Degree Days  
Heating Degree Days 0 1  
Month to date heating degree days 4 11  
Since 1 June heating degree days 61 68  
Since 1 July heating degree days 6 16  
Cooling Degree Days 10 4  
Month to date cooling degree days 126 166  
Year to date cooling degree days 669 532  
Since 1 June cooling degree days 620 502  
Growing Degree Days 25 (Base 50)    
Moisture  
Dew Point 65 °F    
Average Humidity 71    
Maximum Humidity 93    
Minimum Humidity 48    
Precipitation  
Precipitation 0.00 in 0.10 in 4.69 in (2011)
Month to date precipitation 2.41 3.18  
Year to date precipitation 31.22 25.87  
Sea Level Pressure  
Sea Level Pressure 29.89 in    
Wind  
Wind Speed 1 mph (WNW)    
Max Wind Speed 12 mph    
Max Gust Speed 15 mph    
Visibility 6 miles    
Events Fog    
T = Trace of Precipitation, MM = Missing Value Source: NWS Daily Summary

Daily Weather History Graph

Daily Weather History Graph

Search for Another Location

Airport:

Trip Planner

Search our weather history database for the weather conditions in past years. The results will help you decide how hot, cold, wet, or windy it might be!

Date:

Astronomy

Aug. 28, 2013 Rise Set
Actual Time 6:15 AM EDT 7:36 PM EDT
Civil Twilight 5:46 AM EDT 8:05 PM EDT
Nautical Twilight 5:11 AM EDT 8:40 PM EDT
Astronomical Twilight 4:33 AM EDT 9:17 PM EDT
Moon No Moon Rise 2:15 PM EDT (8/28)
Length of Visible Light 14h 18m
Length of Day
13h 20m
Waning Gibbous, 47% of the Moon is Illuminated
Aug 28
Waning Gibbous
Sep 5
New
Sep 12
First Quarter
Sep 19
Full
Sep 26
Last Quarter

Hourly Weather History & Observations

Time (EDT) Temp. Heat Index Dew Point Humidity Pressure Visibility Wind Dir Wind Speed Gust Speed Precip Events Conditions
12:51 AM 68.0 °F - 64.9 °F 90% 29.90 in 10.0 mi Calm Calm - N/A   Clear
1:51 AM 66.0 °F - 63.0 °F 90% 29.89 in 10.0 mi Calm Calm - N/A   Partly Cloudy
2:51 AM 66.0 °F - 64.0 °F 93% 29.88 in 10.0 mi Calm Calm - N/A Fog Shallow Fog
3:51 AM 64.9 °F - 63.0 °F 93% 29.88 in 10.0 mi Calm Calm - N/A Fog Scattered Clouds
4:51 AM 64.9 °F - 63.0 °F 93% 29.88 in 8.0 mi Calm Calm - N/A Fog Patches of Fog
5:33 AM 64.4 °F - 62.6 °F 94% 29.89 in 5.0 mi Calm Calm - N/A Fog Patches of Fog
5:42 AM 62.6 °F - 62.6 °F 100% 29.90 in 0.5 mi Calm Calm - N/A Fog Patches of Fog
5:52 AM 62.6 °F - 62.6 °F 100% 29.90 in 0.5 mi Calm Calm - N/A   Overcast
6:02 AM 64.4 °F - 62.6 °F 94% 29.90 in 1.0 mi Calm Calm - N/A   Mostly Cloudy
6:20 AM 64.4 °F - 62.6 °F 94% 29.90 in 0.5 mi Calm Calm - N/A   Mostly Cloudy
6:38 AM 64.4 °F - 62.6 °F 94% 29.91 in 0.1 mi Calm Calm - N/A Fog Fog
6:48 AM 64.4 °F - 62.6 °F 94% 29.90 in 0.1 mi Calm Calm - N/A Fog Fog
6:51 AM 64.9 °F - 63.0 °F 93% 29.90 in 0.1 mi Calm Calm - N/A Fog Fog
7:36 AM 66.2 °F - 64.4 °F 94% 29.91 in 0.1 mi Calm Calm - N/A Fog Fog
7:51 AM 66.9 °F - 64.9 °F 93% 29.91 in 0.1 mi WSW 3.5 mph - N/A Fog Fog
8:07 AM 66.2 °F - 64.4 °F 94% 29.91 in 1.0 mi WSW 3.5 mph - N/A   Overcast
8:51 AM 68.0 °F - 66.0 °F 93% 29.91 in 1.2 mi Calm Calm - N/A   Overcast
9:51 AM 71.1 °F - 66.9 °F 87% 29.91 in 1.5 mi Calm Calm - N/A Fog Patches of Fog
9:58 AM 71.6 °F - 66.2 °F 83% 29.91 in 4.0 mi Calm Calm - N/A Fog Patches of Fog
10:16 AM 71.6 °F - 66.2 °F 83% 29.91 in 6.0 mi NNW 4.6 mph - N/A Fog Patches of Fog
10:51 AM 75.0 °F - 68.0 °F 79% 29.91 in 10.0 mi Calm Calm - N/A   Partly Cloudy
11:51 AM 80.1 °F 82.7 °F 68.0 °F 67% 29.90 in 10.0 mi Calm Calm - N/A   Partly Cloudy
12:51 PM 82.0 °F 84.9 °F 68.0 °F 62% 29.88 in 10.0 mi NNW 4.6 mph - N/A   Partly Cloudy
1:51 PM 84.9 °F 87.6 °F 66.9 °F 55% 29.86 in 10.0 mi Calm Calm - N/A   Scattered Clouds
2:51 PM 86.0 °F 88.8 °F 66.9 °F 53% 29.84 in 10.0 mi Calm Calm - N/A   Scattered Clouds
3:51 PM 86.0 °F 88.2 °F 66.0 °F 51% 29.83 in 10.0 mi Calm Calm - N/A   Scattered Clouds
4:51 PM 87.1 °F 89.2 °F 66.0 °F 49% 29.83 in 10.0 mi NW 4.6 mph - N/A   Mostly Cloudy
5:51 PM 86.0 °F 87.6 °F 64.9 °F 49% 29.84 in 10.0 mi NNE 5.8 mph - N/A   Mostly Cloudy
6:51 PM 82.0 °F 84.1 °F 66.0 °F 58% 29.85 in 10.0 mi NNE 3.5 mph - N/A   Mostly Cloudy
7:51 PM 77.0 °F - 66.9 °F 71% 29.88 in 10.0 mi South 8.1 mph - N/A   Mostly Cloudy
8:51 PM 75.0 °F - 66.9 °F 76% 29.90 in 10.0 mi Calm Calm - N/A   Mostly Cloudy
9:51 PM 73.9 °F - 66.0 °F 76% 29.91 in 10.0 mi WSW 4.6 mph - N/A   Scattered Clouds
10:51 PM 72.0 °F - 66.0 °F 81% 29.91 in 10.0 mi Calm Calm - N/A   Scattered Clouds
11:51 PM 70.0 °F - 66.0 °F 87% 29.94 in 10.0 mi Calm Calm - N/A   Scattered Clouds